Flag for Norway Weather past 2 weeks in Ålgård, Norway

Now
55 °F

Passing clouds.


Feels Like: 54 °F
Forecast: 57 / 68 °F
Wind: 7 mph from Southeast

Location: Stavanger / Sola

Current Time: Aug 5, 2015 at 5:27:26 AM

Latest Report: Aug 5, 2015 at 4:50 AM


Visibility: N/A

Pressure: 29.86 "Hg

Humidity: 94%

Dew point: 54 °F

Location of ÅlgårdLocation

Historic Weather in Ålgård — Graph

°F

Ålgård temperature yesterday

Maximum temperature yesterday: 70 °F (at 9:20 AM)
Minimum temperature yesterday: 55 °F (at 11:50 PM)
Average temperature yesterday: 65 °F

Past Weeks' High & Low Weather Summary

 TemperatureHumidityPressure
High73 °F (Aug 3, 6:20 PM)100% (Jul 28, 6:20 AM)30.12 "Hg (Jul 28, 6:20 AM)
Low48 °F (Jul 27, 5:50 AM)38% (Aug 3, 5:50 PM)29.39 "Hg (Jul 29, 9:20 AM)
Average58 °F78%29.75 "Hg
* Reported Jul 21 2:50 AM — Aug 5 2:50 AM, Ålgård, Weather by CustomWeather, © 2015

Note: Actual official high and low records may vary slightly from our data, if they occured in-between our weather recording intervals... More about our weather records

Advertising

Ålgård weather history for previous 24 hours

 ConditionsComfort  
Time TempWeatherWind HumidityBarometerVisibility
2:50 AM
Wed, Aug 5
55 °FPassing clouds.7 mph94%29.86 "HgN/A
1:50 AM54 °FPassing clouds.6 mph94%29.86 "HgN/A
12:50 AM54 °FPassing clouds.5 mph94%29.83 "HgN/A
12:20 AM55 °FPassing clouds.5 mph94%29.83 "HgN/A
11:50 PM
Tue, Aug 4
55 °FPassing clouds.6 mph88%29.83 "HgN/A
11:20 PM57 °FPassing clouds.6 mph88%29.83 "HgN/A
10:50 PM57 °FScattered clouds.7 mph94%29.83 "HgN/A
10:20 PM59 °FScattered clouds.7 mph88%29.83 "HgN/A
9:50 PM61 °FScattered clouds.8 mph88%29.83 "HgN/A
9:20 PM61 °FBroken clouds.10 mph88%29.80 "HgN/A
8:50 PM61 °FScattered showers. Broken clouds.13 mph94%29.80 "HgN/A
8:20 PM61 °FScattered showers. Broken clouds.13 mph94%29.80 "HgN/A
7:50 PM61 °FDrizzle. Mostly cloudy.14 mph100%29.80 "Hg4 mi
7:20 PM63 °FDrizzle. Mostly cloudy.16 mph94%29.80 "Hg4 mi
6:50 PM63 °FDrizzle. Cloudy.17 mph94%29.80 "Hg5 mi
6:20 PM63 °FDrizzle. Broken clouds.17 mph94%29.80 "Hg4 mi
5:50 PM63 °FDrizzle. Fog.15 mph94%29.80 "Hg3 mi
5:20 PM63 °FRain. Fog.8 mph94%29.80 "Hg3 mi
4:50 PM63 °FDrizzle. Broken clouds.10 mph94%29.80 "Hg5 mi
4:20 PM64 °FDrizzle. Broken clouds.7 mph88%29.80 "HgN/A
3:50 PM63 °FDrizzle. Broken clouds.9 mph94%29.80 "HgN/A
3:20 PM64 °FRain showers. Broken clouds.13 mph88%29.80 "Hg6 mi
2:50 PM64 °FSprinkles. Broken clouds.13 mph88%29.80 "HgN/A
2:20 PM66 °FLight rain. Partly sunny.14 mph78%29.80 "HgN/A
1:50 PM66 °FSprinkles. Partly sunny.15 mph78%29.80 "HgN/A
1:20 PM66 °FBroken clouds.15 mph73%29.80 "HgN/A
12:50 PM66 °FBroken clouds.17 mph73%29.80 "HgN/A
12:20 PM66 °FSprinkles. Broken clouds.17 mph73%29.80 "HgN/A
11:50 AM68 °FSprinkles. Partly sunny.16 mph64%29.80 "HgN/A
11:20 AM70 °FBroken clouds.20 mph64%29.80 "HgN/A
10:50 AM70 °FScattered clouds.17 mph60%29.80 "HgN/A
10:20 AM68 °FScattered clouds.15 mph64%29.80 "HgN/A
9:50 AM68 °FBroken clouds.16 mph64%29.80 "HgN/A
9:20 AM70 °FBroken clouds.17 mph60%29.77 "HgN/A
8:50 AM68 °FScattered clouds.16 mph60%29.77 "HgN/A
8:20 AM68 °FScattered clouds.15 mph60%29.77 "HgN/A
7:50 AM66 °FScattered clouds.15 mph64%29.77 "HgN/A
7:20 AM66 °FPassing clouds.16 mph64%29.77 "HgN/A
6:50 AM64 °FPassing clouds.15 mph68%29.77 "HgN/A
6:20 AM64 °FPassing clouds.16 mph68%29.77 "HgN/A
5:50 AM66 °FPassing clouds.14 mph64%29.80 "HgN/A
Weather by CustomWeather, © 2015

See weather overviewHow to use our weather pages